Regional Weather Roundup
Issued by NWS

Home | Current Version | Previous Version | Text Only | Print | Product List | Glossary Off
Versions: 1 2 3 4 5 6 7 8 9 10 11 12 13 14 15 16 17 18 19 20 21 22 23 24 25 26 27 28 29 30 31 32 33 34 35 36 37 38 39 40 41 42 43 44 45 46 47 48 49 50

000
ASUS43 KLMK 281110
RWRKY
KENTUCKY REGIONAL WEATHER ROUNDUP
NATIONAL WEATHER SERVICE LOUISVILLE KY
600 AM EST SUN DEC 28 2014

NOTE "FAIR" INDICATES FEW OR NO CLOUDS BELOW 12,000 FEET
WITH NO SIGNIFICANT WEATHER AND/OR OBSTRUCTIONS TO VISIBILITY.

KYZ001>023-026-027-061>063-070>075-281200-
WESTERN AND SOUTH CENTRAL KENTUCKY

CITY           SKY/WX    TMP DP  RH WIND       PRES   REMARKS
PADUCAH        CLOUDY    37  34  89 N9        30.16F WCI  30
HENDERSON      CLOUDY    36  30  80 N8        30.15F WCI  29
OWENSBORO      CLOUDY    37  34  89 N9        30.16R WCI  30
HOPKINSVILLE   CLOUDY    37  36  93 N10G18    30.13S WCI  30
BOWLING GREEN  CLOUDY    41  38  89 N10G18    30.12R
GLASGOW        CLOUDY    40  40 100 N10       30.10R FOG     WCI  34
$$

KYZ024-025-028>034-038-045-046-053-281200-
NORTH CENTRAL KENTUCKY

CITY           SKY/WX    TMP DP  RH WIND       PRES   REMARKS
LOUISVILLE/SDF LGT RAIN  40  37  89 NW9       30.12R WCI  34
LOUISVILLE/LOU CLOUDY    39  37  92 NW9       30.11S FOG     WCI  33
FORT KNOX      CLOUDY    37  36  93 NW9       30.11R WCI  31
$$

KYZ035>037-039>044-047>052-055>060-089>105-281200-
NORTHEAST KENTUCKY

CITY           SKY/WX    TMP DP  RH WIND       PRES   REMARKS
LEXINGTON      LGT RAIN  40  40 100 N15       30.05R FOG     WCI  32
COVINGTON      CLOUDY    37  32  82 N8        30.09R WCI  31
FRANKFORT      CLOUDY    40  38  93 N10       30.07S FOG     WCI  33
$$

KYZ054-064>069-076>088-106>120-281200-
SOUTHEAST KENTUCKY

CITY           SKY/WX    TMP DP  RH WIND       PRES   REMARKS
JACKSON        LGT RAIN  46  44  93 VRB5      30.03S VSB 1/4
LONDON         CLOUDY    47  43  86 S3        30.05S FOG
SOMERSET       RAIN      45  45 100 CALM      30.06S
MIDDLESBORO    CLOUDY    47  47 100 CALM      30.06R FOG
MONTICELLO     FOG       48  48 100 CALM      30.08R VSB 1
$$




USA.gov is the U.S. government's official web portal to all federal, state and local government web resources and services.